Miroslawiec Military Air Base

Jump to: basic info | weather | frequencies | runways | comments

Related pages: nearby airports | nearby navaids | notams | map

Basic information (top)

Codes: EPMI
Location: lon 53.395100, lat 16.082800, elev 459 ft / 140 m msl
Status: medium_airport
Scheduled airline service: no
Links: Wikipedia Mobile

Weather (top)

Current conditions for Szczecin-Goleniów "Solidarność" Airport 44nm (81km) WNW (rec'd 2014/11/28 06:00Z):

EPSC 280600Z 10009KT 8000 BKN011 M00/M03 Q1022

Airport forecast for Szczecin-Goleniów "Solidarność" Airport 44nm (81km) WNW (rec'd 2012/06/28 21:49Z):

TAF EPSC 282000Z 2821/2906 VRB02KT CAVOK 
      TEMPO 2822/2905 3000 BR PROB30 2900/2904 1500 BR BKN003

Frequencies (top)

Verify before use: may be inaccurate or out of date.

AFIS: 128.5 MHz (INFO)

Runways (top)

12/30: 8,216 x 160 ft (2,504 x 49 m) — paved — lighted

Latest comments (top)

CASA C-295M crash: On Wednesday January 23, 2008, a CASA ... [read]

More... (top)

See also NOTAMs and nearby airports and navaids, or visit the Miroslawiec Military Air Base page at the main OurAirports website..